owner,sensor,date,latitude,longitude,vertical_datum,wind_speed,wind_to_direction,wind_speed_of_gust,qcFlag 
TCOON,ioos:station:TCOON:006:1,2012-03-01T00:00:00Z,27.8217,-97.2040,0.0,3.6,70.0,4.6,'1111122,1111122,1111122' 
TCOON,ioos:station:TCOON:006:1,2012-03-01T01:00:00Z,27.8217,-97.2040,0.0,1.8,61.0,3.7,'11111222,11111222,11111222' 
TCOON,ioos:station:TCOON:006:1,2012-03-01T02:00:00Z,27.8217,-97.2040,0.0,2.5,74.0,3.3,'11111222,11111222,11111222' 
TCOON,ioos:station:TCOON:006:1,2012-03-01T03:00:00Z,27.8217,-97.2040,0.0,2.1,120.0,4.6,'1111122,1111122,1111122' 
TCOON,ioos:station:TCOON:006:1,2012-03-01T04:00:00Z,27.8217,-97.2040,0.0,2.6,137.0,4.4,'11111222,11111222,11111222' 
TCOON,ioos:station:TCOON:006:1,2012-03-01T05:00:00Z,27.8217,-97.2040,0.0,2.8,159.0,4.2,'11111222,11111222,11111222' 
TCOON,ioos:station:TCOON:006:1,2012-03-01T06:00:00Z,27.8217,-97.2040,0.0,3.6,164.0,6.3,'11111222,11111222,11111222' 
TCOON,ioos:station:TCOON:006:1,2012-03-01T07:00:00Z,27.8217,-97.2040,0.0,3.2,168.0,5.5,'11111222,11111222,11111222' 
TCOON,ioos:station:TCOON:006:1,2012-03-01T08:00:00Z,27.8217,-97.2040,0.0,3.8,165.0,5.4,'11111222,11111222,11111222' 
TCOON,ioos:station:TCOON:006:1,2012-03-01T09:00:00Z,27.8217,-97.2040,0.0,3.2,164.0,5.0,'11111222,11111222,11111222' 
TCOON,ioos:station:TCOON:006:1,2012-03-01T10:00:00Z,27.8217,-97.2040,0.0,2.9,160.0,3.9,'11111222,11111222,11111222' 
TCOON,ioos:station:TCOON:006:1,2012-03-01T11:00:00Z,27.8217,-97.2040,0.0,3.5,155.0,5.1,'11111222,11111222,11111222' 
TCOON,ioos:station:TCOON:006:1,2012-03-01T12:00:00Z,27.8217,-97.2040,0.0,4.1,146.0,5.5,'11111222,11111222,11111222' 
TCOON,ioos:station:TCOON:006:1,2012-03-01T13:00:00Z,27.8217,-97.2040,0.0,3.6,150.0,4.6,'1111122,1111122,1111122' 
TCOON,ioos:station:TCOON:006:1,2012-03-01T14:00:00Z,27.8217,-97.2040,0.0,3.1,160.0,5.1,'1111122,1111122,1111122' 
TCOON,ioos:station:TCOON:006:1,2012-03-01T15:00:00Z,27.8217,-97.2040,0.0,3.0,146.0,4.2,'11111222,11111222,11111222' 
TCOON,ioos:station:TCOON:006:1,2012-03-01T16:00:00Z,27.8217,-97.2040,0.0,4.1,150.0,6.2,'1111122,1111122,1111122' 
TCOON,ioos:station:TCOON:006:1,2012-03-01T17:00:00Z,27.8217,-97.2040,0.0,4.6,140.0,6.7,'1111122,1111122,1111122' 
TCOON,ioos:station:TCOON:006:1,2012-03-01T18:00:00Z,27.8217,-97.2040,0.0,5.1,150.0,7.7,'1111122,1111122,1111122' 
TCOON,ioos:station:TCOON:006:1,2012-03-01T19:00:00Z,27.8217,-97.2040,0.0,5.1,150.0,7.2,'1111122,1111122,1111122' 
TCOON,ioos:station:TCOON:006:1,2012-03-01T20:00:00Z,27.8217,-97.2040,0.0,5.7,140.0,8.8,'1111122,1111122,1111122' 
TCOON,ioos:station:TCOON:006:1,2012-03-01T21:00:00Z,27.8217,-97.2040,0.0,5.0,141.0,9.0,'11111222,11111222,11111222' 
TCOON,ioos:station:TCOON:006:1,2012-03-01T22:00:00Z,27.8217,-97.2040,0.0,6.2,130.0,8.8,'1111122,1111122,1111122' 
TCOON,ioos:station:TCOON:006:1,2012-03-01T23:00:00Z,27.8217,-97.2040,0.0,7.7,130.0,9.8,'1111122,1111122,1111122' 
TCOON,ioos:station:TCOON:006:1,2012-03-02T00:00:00Z,27.8217,-97.2040,0.0,5.1,140.0,8.8,'1111122,1111122,1111122' 
TCOON,ioos:station:TCOON:006:1,2012-03-02T01:00:00Z,27.8217,-97.2040,0.0,6.2,130.0,8.8,'1111122,1111122,1111122' 
TCOON,ioos:station:TCOON:006:1,2012-03-02T02:00:00Z,27.8217,-97.2040,0.0,7.7,131.0,9.6,'11111222,11111222,11111222' 
TCOON,ioos:station:TCOON:006:1,2012-03-02T03:00:00Z,27.8217,-97.2040,0.0,5.4,149.0,8.1,'11111222,11111222,11111222' 
TCOON,ioos:station:TCOON:006:1,2012-03-02T04:00:00Z,27.8217,-97.2040,0.0,6.3,169.0,7.3,'11111222,11111222,11111222' 
TCOON,ioos:station:TCOON:006:1,2012-03-02T05:00:00Z,27.8217,-97.2040,0.0,7.4,165.0,9.7,'11111222,11111222,11111222' 
TCOON,ioos:station:TCOON:006:1,2012-03-02T06:00:00Z,27.8217,-97.2040,0.0,7.1,164.0,8.5,'11111222,11111222,11111222' 
TCOON,ioos:station:TCOON:006:1,2012-03-02T07:00:00Z,27.8217,-97.2040,0.0,7.7,174.0,9.4,'11111222,11111222,11111222' 
TCOON,ioos:station:TCOON:006:1,2012-03-02T08:00:00Z,27.8217,-97.2040,0.0,6.3,171.0,7.8,'11111222,11111222,11111222' 
TCOON,ioos:station:TCOON:006:1,2012-03-02T09:00:00Z,27.8217,-97.2040,0.0,7.8,169.0,8.6,'11111222,11111222,11111222' 
TCOON,ioos:station:TCOON:006:1,2012-03-02T10:00:00Z,27.8217,-97.2040,0.0,5.7,159.0,8.6,'11111222,11111222,11111222' 
TCOON,ioos:station:TCOON:006:1,2012-03-02T11:00:00Z,27.8217,-97.2040,0.0,5.1,150.0,7.2,'1111122,1111122,1111122' 
TCOON,ioos:station:TCOON:006:1,2012-03-02T12:00:00Z,27.8217,-97.2040,0.0,4.1,150.0,6.7,'1111122,1111122,1111122' 
TCOON,ioos:station:TCOON:006:1,2012-03-02T13:00:00Z,27.8217,-97.2040,0.0,3.6,150.0,5.1,'1111122,1111122,1111122' 
TCOON,ioos:station:TCOON:006:1,2012-03-02T14:00:00Z,27.8217,-97.2040,0.0,3.1,160.0,4.6,'1111122,1111122,1111122' 
TCOON,ioos:station:TCOON:006:1,2012-03-02T15:00:00Z,27.8217,-97.2040,0.0,3.6,160.0,5.1,'1111122,1111122,1111122' 
TCOON,ioos:station:TCOON:006:1,2012-03-02T16:00:00Z,27.8217,-97.2040,0.0,5.1,170.0,6.7,'1111122,1111122,1111122' 
TCOON,ioos:station:TCOON:006:1,2012-03-02T17:00:00Z,27.8217,-97.2040,0.0,3.6,150.0,5.7,'1111122,1111122,1111122' 
TCOON,ioos:station:TCOON:006:1,2012-03-02T18:00:00Z,27.8217,-97.2040,0.0,3.6,140.0,5.1,'1111122,1111122,1111122' 
TCOON,ioos:station:TCOON:006:1,2012-03-02T19:00:00Z,27.8217,-97.2040,0.0,4.6,140.0,6.7,'1111122,1111122,1111122' 
TCOON,ioos:station:TCOON:006:1,2012-03-02T20:00:00Z,27.8217,-97.2040,0.0,4.6,130.0,6.2,'1111122,1111122,1111122' 
TCOON,ioos:station:TCOON:006:1,2012-03-02T21:00:00Z,27.8217,-97.2040,0.0,4.1,120.0,5.1,'1111122,1111122,1111122' 
TCOON,ioos:station:TCOON:006:1,2012-03-02T22:00:00Z,27.8217,-97.2040,0.0,4.6,120.0,6.2,'1111122,1111122,1111122' 
TCOON,ioos:station:TCOON:006:1,2012-03-02T23:00:00Z,27.8217,-97.2040,0.0,3.8,119.0,4.5,'11111222,11111222,11111222' 
TCOON,ioos:station:TCOON:006:1,2012-03-03T00:00:00Z,27.8217,-97.2040,0.0,1.0,90.0,2.1,'1111122,1111122,1111122' 
TCOON,ioos:station:TCOON:006:1,2012-03-03T01:00:00Z,27.8217,-97.2040,0.0,2.7,122.0,99.0,'11111222,11111222,11144222' 
TCOON,ioos:station:TCOON:006:1,2012-03-03T02:00:00Z,27.8217,-97.2040,0.0,1.8,69.0,2.6,'11111222,11111222,11111222' 
TCOON,ioos:station:TCOON:006:1,2012-03-03T03:00:00Z,27.8217,-97.2040,0.0,2.1,100.0,4.1,'1111122,1111122,1111122' 
TCOON,ioos:station:TCOON:006:1,2012-03-03T04:00:00Z,27.8217,-97.2040,0.0,2.0,99.0,4.4,'11111222,11111222,11111222' 
TCOON,ioos:station:TCOON:006:1,2012-03-03T05:00:00Z,27.8217,-97.2040,0.0,3.4,115.0,5.9,'11111222,11111222,11111222' 
TCOON,ioos:station:TCOON:006:1,2012-03-03T06:00:00Z,27.8217,-97.2040,0.0,3.0,128.0,3.5,'11111222,11111222,11111222' 
TCOON,ioos:station:TCOON:006:1,2012-03-03T07:00:00Z,27.8217,-97.2040,0.0,1.5,170.0,2.6,'1111122,1111122,1111122' 
TCOON,ioos:station:TCOON:006:1,2012-03-03T08:00:00Z,27.8217,-97.2040,0.0,1.5,280.0,2.6,'1111122,1111122,1111122' 
TCOON,ioos:station:TCOON:006:1,2012-03-03T09:00:00Z,27.8217,-97.2040,0.0,4.6,340.0,9.8,'1111122,1111122,1111122' 
TCOON,ioos:station:TCOON:006:1,2012-03-03T10:00:00Z,27.8217,-97.2040,0.0,2.6,360.0,8.8,'1111122,1111122,1111122' 
TCOON,ioos:station:TCOON:006:1,2012-03-03T11:00:00Z,27.8217,-97.2040,0.0,3.1,360.0,7.2,'1111122,1111122,1111122' 
TCOON,ioos:station:TCOON:006:1,2012-03-03T12:00:00Z,27.8217,-97.2040,0.0,2.6,350.0,8.2,'1111122,1111122,1111122' 
TCOON,ioos:station:TCOON:006:1,2012-03-03T13:00:00Z,27.8217,-97.2040,0.0,4.1,350.0,7.7,'1111122,1111122,1111122' 
TCOON,ioos:station:TCOON:006:1,2012-03-03T14:00:00Z,27.8217,-97.2040,0.0,5.1,340.0,9.3,'1111122,1111122,1111122' 
TCOON,ioos:station:TCOON:006:1,2012-03-03T15:00:00Z,27.8217,-97.2040,0.0,3.1,360.0,7.2,'1111122,1111122,1111122' 
TCOON,ioos:station:TCOON:006:1,2012-03-03T16:00:00Z,27.8217,-97.2040,0.0,4.6,340.0,6.7,'1111122,1111122,1111122' 
TCOON,ioos:station:TCOON:006:1,2012-03-03T17:00:00Z,27.8217,-97.2040,0.0,5.1,340.0,9.3,'1111122,1111122,1111122' 
TCOON,ioos:station:TCOON:006:1,2012-03-03T18:00:00Z,27.8217,-97.2040,0.0,5.7,320.0,8.8,'1111122,1111122,1111122' 
TCOON,ioos:station:TCOON:006:1,2012-03-03T19:00:00Z,27.8217,-97.2040,0.0,5.7,310.0,8.2,'1111122,1111122,1111122' 
TCOON,ioos:station:TCOON:006:1,2012-03-03T20:00:00Z,27.8217,-97.2040,0.0,4.6,330.0,9.8,'1111122,1111122,1111122' 
TCOON,ioos:station:TCOON:006:1,2012-03-03T21:00:00Z,27.8217,-97.2040,0.0,4.1,320.0,9.8,'1111122,1111122,1111122' 
TCOON,ioos:station:TCOON:006:1,2012-03-03T22:00:00Z,27.8217,-97.2040,0.0,6.2,340.0,10.8,'1111122,1111122,1111122' 
TCOON,ioos:station:TCOON:006:1,2012-03-03T23:00:00Z,27.8217,-97.2040,0.0,3.1,350.0,6.7,'1111122,1111122,1111122' 
TCOON,ioos:station:TCOON:006:1,2012-03-04T00:00:00Z,27.8217,-97.2040,0.0,2.1,340.0,4.1,'1111122,1111122,1111122' 
TCOON,ioos:station:TCOON:006:1,2012-03-04T01:00:00Z,27.8217,-97.2040,0.0,1.0,340.0,2.6,'1111122,1111122,1111122' 
TCOON,ioos:station:TCOON:006:1,2012-03-04T02:00:00Z,27.8217,-97.2040,0.0,1.0,360.0,2.1,'1111122,1111122,1111122' 
TCOON,ioos:station:TCOON:006:1,2012-03-04T03:00:00Z,27.8217,-97.2040,0.0,1.5,10.0,2.6,'1111122,1111122,1111122' 
TCOON,ioos:station:TCOON:006:1,2012-03-04T04:00:00Z,27.8217,-97.2040,0.0,2.1,20.0,3.1,'1111122,1111122,1111122' 
TCOON,ioos:station:TCOON:006:1,2012-03-04T05:00:00Z,27.8217,-97.2040,0.0,1.5,10.0,2.1,'1111122,1111122,1111122' 
TCOON,ioos:station:TCOON:006:1,2012-03-04T06:00:00Z,27.8217,-97.2040,0.0,2.6,20.0,3.6,'1111122,1111122,1111122' 
TCOON,ioos:station:TCOON:006:1,2012-03-04T07:00:00Z,27.8217,-97.2040,0.0,2.1,37.0,3.5,'11111222,11111222,11111222' 
TCOON,ioos:station:TCOON:006:1,2012-03-04T08:00:00Z,27.8217,-97.2040,0.0,1.1,347.0,1.3,'11111222,11111222,11111222' 
TCOON,ioos:station:TCOON:006:1,2012-03-04T09:00:00Z,27.8217,-97.2040,0.0,1.3,325.0,1.6,'11111222,11111222,11111222' 
TCOON,ioos:station:TCOON:006:1,2012-03-04T10:00:00Z,27.8217,-97.2040,0.0,1.0,320.0,1.5,'1111122,1111122,1111122' 
TCOON,ioos:station:TCOON:006:1,2012-03-04T11:00:00Z,27.8217,-97.2040,0.0,0.7,330.0,1.0,'11111222,11111222,11111222' 
TCOON,ioos:station:TCOON:006:1,2012-03-04T12:00:00Z,27.8217,-97.2040,0.0,0.5,300.0,1.0,'1111122,1111122,1111122' 
TCOON,ioos:station:TCOON:006:1,2012-03-04T13:00:00Z,27.8217,-97.2040,0.0,1.5,310.0,2.1,'1111122,1111122,1111122' 
TCOON,ioos:station:TCOON:006:1,2012-03-04T14:00:00Z,27.8217,-97.2040,0.0,3.6,248.0,4.5,'11111222,11111222,11111222' 
TCOON,ioos:station:TCOON:006:1,2012-03-04T15:00:00Z,27.8217,-97.2040,0.0,3.6,240.0,4.6,'1111122,1111122,1111122' 
TCOON,ioos:station:TCOON:006:1,2012-03-04T16:00:00Z,27.8217,-97.2040,0.0,4.1,210.0,5.7,'1111122,1111122,1111122' 
TCOON,ioos:station:TCOON:006:1,2012-03-04T17:00:00Z,27.8217,-97.2040,0.0,4.4,179.0,5.5,'11111222,11111222,11111222' 
TCOON,ioos:station:TCOON:006:1,2012-03-04T18:00:00Z,27.8217,-97.2040,0.0,4.1,170.0,4.6,'1111122,1111122,1111122' 
TCOON,ioos:station:TCOON:006:1,2012-03-04T19:00:00Z,27.8217,-97.2040,0.0,4.6,160.0,5.1,'1111122,1111122,1111122' 
TCOON,ioos:station:TCOON:006:1,2012-03-04T20:00:00Z,27.8217,-97.2040,0.0,4.6,130.0,6.2,'1111122,1111122,1111122' 
TCOON,ioos:station:TCOON:006:1,2012-03-04T21:00:00Z,27.8217,-97.2040,0.0,5.7,140.0,7.7,'1111122,1111122,1111122' 
TCOON,ioos:station:TCOON:006:1,2012-03-04T22:00:00Z,27.8217,-97.2040,0.0,6.7,130.0,8.2,'1111122,1111122,1111122' 
TCOON,ioos:station:TCOON:006:1,2012-03-04T23:00:00Z,27.8217,-97.2040,0.0,7.5,139.0,10.0,'11111222,11111222,11111222' 
TCOON,ioos:station:TCOON:006:1,2012-03-05T00:00:00Z,27.8217,-97.2040,0.0,6.3,145.0,8.7,'11111222,11111222,11111222' 
TCOON,ioos:station:TCOON:006:1,2012-03-05T01:00:00Z,27.8217,-97.2040,0.0,6.9,150.0,8.0,'11111222,11111222,11111222' 
TCOON,ioos:station:TCOON:006:1,2012-03-05T02:00:00Z,27.8217,-97.2040,0.0,6.0,152.0,7.8,'11111222,11111222,11111222' 
TCOON,ioos:station:TCOON:006:1,2012-03-05T03:00:00Z,27.8217,-97.2040,0.0,6.5,161.0,8.3,'11111222,11111222,11111222' 
TCOON,ioos:station:TCOON:006:1,2012-03-05T04:00:00Z,27.8217,-97.2040,0.0,6.8,159.0,9.0,'11111222,11111222,11111222' 
TCOON,ioos:station:TCOON:006:1,2012-03-05T05:00:00Z,27.8217,-97.2040,0.0,6.7,164.0,8.0,'11111222,11111222,11111222' 
TCOON,ioos:station:TCOON:006:1,2012-03-05T06:00:00Z,27.8217,-97.2040,0.0,5.8,157.0,6.7,'11111222,11111222,11111222' 
TCOON,ioos:station:TCOON:006:1,2012-03-05T07:00:00Z,27.8217,-97.2040,0.0,3.9,150.0,5.9,'11111222,11111222,11111222' 
TCOON,ioos:station:TCOON:006:1,2012-03-05T08:00:00Z,27.8217,-97.2040,0.0,2.6,140.0,3.5,'11111222,11111222,11111222' 
TCOON,ioos:station:TCOON:006:1,2012-03-05T09:00:00Z,27.8217,-97.2040,0.0,2.4,130.0,3.0,'11111222,11111222,11111222' 
TCOON,ioos:station:TCOON:006:1,2012-03-05T10:00:00Z,27.8217,-97.2040,0.0,1.7,113.0,2.8,'11111222,11111222,11111222' 
TCOON,ioos:station:TCOON:006:1,2012-03-05T11:00:00Z,27.8217,-97.2040,0.0,1.4,45.0,1.8,'11111222,11111222,11111222' 
TCOON,ioos:station:TCOON:006:1,2012-03-05T12:00:00Z,27.8217,-97.2040,0.0,1.1,71.0,2.3,'11111222,11111222,11111222' 
TCOON,ioos:station:TCOON:006:1,2012-03-05T13:00:00Z,27.8217,-97.2040,0.0,1.7,133.0,2.2,'11111222,11111222,11111222' 
TCOON,ioos:station:TCOON:006:1,2012-03-05T14:00:00Z,27.8217,-97.2040,0.0,1.5,130.0,2.1,'1111122,1111122,1111122' 
TCOON,ioos:station:TCOON:006:1,2012-03-05T15:00:00Z,27.8217,-97.2040,0.0,3.4,119.0,4.1,'11111222,11111222,11111222' 
TCOON,ioos:station:TCOON:006:1,2012-03-05T16:00:00Z,27.8217,-97.2040,0.0,3.7,124.0,5.4,'11111222,11111222,11111222' 
TCOON,ioos:station:TCOON:006:1,2012-03-05T17:00:00Z,27.8217,-97.2040,0.0,4.2,120.0,5.9,'11111222,11111222,11111222' 
TCOON,ioos:station:TCOON:006:1,2012-03-05T18:00:00Z,27.8217,-97.2040,0.0,4.3,120.0,6.5,'11111222,11111222,11111222' 
TCOON,ioos:station:TCOON:006:1,2012-03-05T19:00:00Z,27.8217,-97.2040,0.0,4.8,112.0,6.3,'11111222,11111222,11111222' 
TCOON,ioos:station:TCOON:006:1,2012-03-05T20:00:00Z,27.8217,-97.2040,0.0,4.1,108.0,7.2,'11111222,11111222,11111222' 
TCOON,ioos:station:TCOON:006:1,2012-03-05T21:00:00Z,27.8217,-97.2040,0.0,5.1,110.0,7.7,'1111122,1111122,1111122' 
TCOON,ioos:station:TCOON:006:1,2012-03-05T22:00:00Z,27.8217,-97.2040,0.0,5.4,115.0,7.5,'11111222,11111222,11111222' 
TCOON,ioos:station:TCOON:006:1,2012-03-05T23:00:00Z,27.8217,-97.2040,0.0,4.6,114.0,6.9,'11111222,11111222,11111222' 
TCOON,ioos:station:TCOON:006:1,2012-03-06T00:00:00Z,27.8217,-97.2040,0.0,4.6,110.0,6.4,'11111222,11111222,11111222' 
TCOON,ioos:station:TCOON:006:1,2012-03-06T01:00:00Z,27.8217,-97.2040,0.0,4.0,109.0,7.0,'11111222,11111222,11111222' 
TCOON,ioos:station:TCOON:006:1,2012-03-06T02:00:00Z,27.8217,-97.2040,0.0,5.4,113.0,7.3,'11111222,11111222,11111222' 
TCOON,ioos:station:TCOON:006:1,2012-03-06T03:00:00Z,27.8217,-97.2040,0.0,3.7,111.0,6.5,'11111222,11111222,11111222' 
TCOON,ioos:station:TCOON:006:1,2012-03-06T04:00:00Z,27.8217,-97.2040,0.0,4.3,115.0,6.7,'11111222,11111222,11111222' 
TCOON,ioos:station:TCOON:006:1,2012-03-06T05:00:00Z,27.8217,-97.2040,0.0,4.5,115.0,6.5,'11111222,11111222,11111222' 
TCOON,ioos:station:TCOON:006:1,2012-03-06T06:00:00Z,27.8217,-97.2040,0.0,5.4,121.0,7.8,'11111222,11111222,11111222' 
TCOON,ioos:station:TCOON:006:1,2012-03-06T07:00:00Z,27.8217,-97.2040,0.0,7.1,132.0,8.4,'11111222,11111222,11111222' 
TCOON,ioos:station:TCOON:006:1,2012-03-06T08:00:00Z,27.8217,-97.2040,0.0,5.9,129.0,7.8,'11111222,11111222,11111222' 
TCOON,ioos:station:TCOON:006:1,2012-03-06T09:00:00Z,27.8217,-97.2040,0.0,6.1,133.0,8.6,'11111222,11111222,11111222' 
TCOON,ioos:station:TCOON:006:1,2012-03-06T10:00:00Z,27.8217,-97.2040,0.0,5.5,141.0,7.8,'11111222,11111222,11111222' 
TCOON,ioos:station:TCOON:006:1,2012-03-06T11:00:00Z,27.8217,-97.2040,0.0,4.5,129.0,5.2,'11111222,11111222,11111222' 
TCOON,ioos:station:TCOON:006:1,2012-03-06T12:00:00Z,27.8217,-97.2040,0.0,5.4,131.0,6.8,'11111222,11111222,11111222' 
TCOON,ioos:station:TCOON:006:1,2012-03-06T13:00:00Z,27.8217,-97.2040,0.0,4.1,122.0,6.5,'11111222,11111222,11111222' 
TCOON,ioos:station:TCOON:006:1,2012-03-06T14:00:00Z,27.8217,-97.2040,0.0,4.6,124.0,6.6,'11111222,11111222,11111222' 
TCOON,ioos:station:TCOON:006:1,2012-03-06T15:00:00Z,27.8217,-97.2040,0.0,5.8,129.0,7.9,'11111222,11111222,11111222' 
TCOON,ioos:station:TCOON:006:1,2012-03-06T16:00:00Z,27.8217,-97.2040,0.0,6.6,126.0,8.7,'11111222,11111222,11111222' 
TCOON,ioos:station:TCOON:006:1,2012-03-06T17:00:00Z,27.8217,-97.2040,0.0,6.7,127.0,9.9,'11111222,11111222,11111222' 
TCOON,ioos:station:TCOON:006:1,2012-03-06T18:00:00Z,27.8217,-97.2040,0.0,6.0,124.0,9.7,'11111222,11111222,11111222' 
TCOON,ioos:station:TCOON:006:1,2012-03-06T19:00:00Z,27.8217,-97.2040,0.0,5.5,115.0,8.0,'11111222,11111222,11111222' 
TCOON,ioos:station:TCOON:006:1,2012-03-06T20:00:00Z,27.8217,-97.2040,0.0,7.4,119.0,10.6,'11111222,11111222,11111222' 
TCOON,ioos:station:TCOON:006:1,2012-03-06T21:00:00Z,27.8217,-97.2040,0.0,5.9,115.0,9.6,'11111222,11111222,11111222' 
TCOON,ioos:station:TCOON:006:1,2012-03-06T22:00:00Z,27.8217,-97.2040,0.0,4.6,106.0,8.0,'11111222,11111222,11111222' 
TCOON,ioos:station:TCOON:006:1,2012-03-06T23:00:00Z,27.8217,-97.2040,0.0,4.5,98.0,7.7,'11111222,11111222,11111222' 
TCOON,ioos:station:TCOON:006:1,2012-03-07T00:00:00Z,27.8217,-97.2040,0.0,4.4,100.0,7.6,'11111222,11111222,11111222' 
TCOON,ioos:station:TCOON:006:1,2012-03-07T01:00:00Z,27.8217,-97.2040,0.0,4.1,98.0,7.7,'11111222,11111222,11111222' 
TCOON,ioos:station:TCOON:006:1,2012-03-07T02:00:00Z,27.8217,-97.2040,0.0,4.3,106.0,7.4,'11111222,11111222,11111222' 
TCOON,ioos:station:TCOON:006:1,2012-03-07T03:00:00Z,27.8217,-97.2040,0.0,5.5,108.0,8.5,'11111222,11111222,11111222' 
TCOON,ioos:station:TCOON:006:1,2012-03-07T04:00:00Z,27.8217,-97.2040,0.0,5.0,108.0,8.1,'11111222,11111222,11111222' 
TCOON,ioos:station:TCOON:006:1,2012-03-07T05:00:00Z,27.8217,-97.2040,0.0,6.3,118.0,8.5,'11111222,11111222,11111222' 
TCOON,ioos:station:TCOON:006:1,2012-03-07T06:00:00Z,27.8217,-97.2040,0.0,5.0,112.0,5.7,'11111222,11111222,11111222' 
TCOON,ioos:station:TCOON:006:1,2012-03-07T07:00:00Z,27.8217,-97.2040,0.0,4.5,125.0,6.9,'11111222,11111222,11111222' 
TCOON,ioos:station:TCOON:006:1,2012-03-07T08:00:00Z,27.8217,-97.2040,0.0,4.7,127.0,8.3,'11111222,11111222,11111222' 
TCOON,ioos:station:TCOON:006:1,2012-03-07T09:00:00Z,27.8217,-97.2040,0.0,5.5,123.0,6.8,'11111222,11111222,11111222' 
TCOON,ioos:station:TCOON:006:1,2012-03-07T10:00:00Z,27.8217,-97.2040,0.0,5.5,125.0,7.0,'11111222,11111222,11111222' 
TCOON,ioos:station:TCOON:006:1,2012-03-07T11:00:00Z,27.8217,-97.2040,0.0,6.1,128.0,7.8,'11111222,11111222,11111222' 
TCOON,ioos:station:TCOON:006:1,2012-03-07T12:00:00Z,27.8217,-97.2040,0.0,6.2,130.0,7.7,'1111122,1111122,1111122' 
TCOON,ioos:station:TCOON:006:1,2012-03-07T13:00:00Z,27.8217,-97.2040,0.0,6.2,120.0,8.8,'1111122,1111122,1111122' 
TCOON,ioos:station:TCOON:006:1,2012-03-07T14:00:00Z,27.8217,-97.2040,0.0,6.2,130.0,9.3,'1111122,1111122,1111122' 
TCOON,ioos:station:TCOON:006:1,2012-03-07T15:00:00Z,27.8217,-97.2040,0.0,7.2,130.0,10.8,'1111122,1111122,1111122' 
TCOON,ioos:station:TCOON:006:1,2012-03-07T16:00:00Z,27.8217,-97.2040,0.0,8.8,130.0,11.3,'1111122,1111122,1111122' 
TCOON,ioos:station:TCOON:006:1,2012-03-07T17:00:00Z,27.8217,-97.2040,0.0,7.0,126.0,10.0,'11111222,11111222,11111222' 
TCOON,ioos:station:TCOON:006:1,2012-03-07T18:00:00Z,27.8217,-97.2040,0.0,7.2,120.0,9.3,'1111122,1111122,1111122' 
TCOON,ioos:station:TCOON:006:1,2012-03-07T19:00:00Z,27.8217,-97.2040,0.0,6.7,120.0,9.8,'1111122,1111122,1111122' 
TCOON,ioos:station:TCOON:006:1,2012-03-07T20:00:00Z,27.8217,-97.2040,0.0,8.2,120.0,10.8,'1111122,1111122,1111122' 
TCOON,ioos:station:TCOON:006:1,2012-03-07T21:00:00Z,27.8217,-97.2040,0.0,6.7,120.0,9.8,'1111122,1111122,1111122' 
TCOON,ioos:station:TCOON:006:1,2012-03-07T22:00:00Z,27.8217,-97.2040,0.0,7.7,120.0,10.3,'1111122,1111122,1111122' 
TCOON,ioos:station:TCOON:006:1,2012-03-07T23:00:00Z,27.8217,-97.2040,0.0,6.2,110.0,8.8,'1111122,1111122,1111122' 
TCOON,ioos:station:TCOON:006:1,2012-03-08T00:00:00Z,27.8217,-97.2040,0.0,6.2,110.0,8.2,'1111122,1111122,1111122' 
TCOON,ioos:station:TCOON:006:1,2012-03-08T01:00:00Z,27.8217,-97.2040,0.0,7.5,120.0,9.8,'11111222,11111222,11111222' 
TCOON,ioos:station:TCOON:006:1,2012-03-08T02:00:00Z,27.8217,-97.2040,0.0,7.6,119.0,10.0,'11111222,11111222,11111222' 
TCOON,ioos:station:TCOON:006:1,2012-03-08T03:00:00Z,27.8217,-97.2040,0.0,7.2,120.0,9.8,'1111122,1111122,1111122' 
TCOON,ioos:station:TCOON:006:1,2012-03-08T04:00:00Z,27.8217,-97.2040,0.0,6.7,130.0,9.3,'1111122,1111122,1111122' 
TCOON,ioos:station:TCOON:006:1,2012-03-08T05:00:00Z,27.8217,-97.2040,0.0,6.7,130.0,8.8,'1111122,1111122,1111122' 
TCOON,ioos:station:TCOON:006:1,2012-03-08T06:00:00Z,27.8217,-97.2040,0.0,6.7,127.0,7.8,'11111222,11111222,11111222' 
TCOON,ioos:station:TCOON:006:1,2012-03-08T07:00:00Z,27.8217,-97.2040,0.0,7.0,126.0,10.4,'11111222,11111222,11111222' 
TCOON,ioos:station:TCOON:006:1,2012-03-08T08:00:00Z,27.8217,-97.2040,0.0,6.2,130.0,8.8,'1111122,1111122,1111122' 
TCOON,ioos:station:TCOON:006:1,2012-03-08T09:00:00Z,27.8217,-97.2040,0.0,6.1,137.0,9.0,'11111222,11111222,11111222' 
TCOON,ioos:station:TCOON:006:1,2012-03-08T10:00:00Z,27.8217,-97.2040,0.0,9.3,118.0,11.7,'11111222,11111222,11111222' 
TCOON,ioos:station:TCOON:006:1,2012-03-08T11:00:00Z,27.8217,-97.2040,0.0,8.2,120.0,10.3,'1111122,1111122,1111122' 
TCOON,ioos:station:TCOON:006:1,2012-03-08T12:00:00Z,27.8217,-97.2040,0.0,6.0,120.0,9.4,'11111222,11111222,11111222' 
TCOON,ioos:station:TCOON:006:1,2012-03-08T13:00:00Z,27.8217,-97.2040,0.0,3.1,90.0,5.7,'1111122,1111122,1111122' 
TCOON,ioos:station:TCOON:006:1,2012-03-08T14:00:00Z,27.8217,-97.2040,0.0,3.6,100.0,5.7,'1111122,1111122,1111122' 
TCOON,ioos:station:TCOON:006:1,2012-03-08T15:00:00Z,27.8217,-97.2040,0.0,3.1,100.0,6.2,'1111122,1111122,1111122' 
TCOON,ioos:station:TCOON:006:1,2012-03-08T16:00:00Z,27.8217,-97.2040,0.0,3.6,110.0,6.2,'1111122,1111122,1111122' 
TCOON,ioos:station:TCOON:006:1,2012-03-08T17:00:00Z,27.8217,-97.2040,0.0,6.2,120.0,8.8,'1111122,1111122,1111122' 
TCOON,ioos:station:TCOON:006:1,2012-03-08T18:00:00Z,27.8217,-97.2040,0.0,6.7,130.0,10.8,'1111122,1111122,1111122' 
TCOON,ioos:station:TCOON:006:1,2012-03-08T19:00:00Z,27.8217,-97.2040,0.0,6.3,115.0,10.8,'11111222,11111222,11111222' 
TCOON,ioos:station:TCOON:006:1,2012-03-08T20:00:00Z,27.8217,-97.2040,0.0,5.1,114.0,8.4,'11111222,11111222,11111222' 
TCOON,ioos:station:TCOON:006:1,2012-03-08T21:00:00Z,27.8217,-97.2040,0.0,3.7,101.0,8.9,'11111222,11111222,11111222' 
TCOON,ioos:station:TCOON:006:1,2012-03-08T22:00:00Z,27.8217,-97.2040,0.0,5.0,111.0,8.6,'11111222,11111222,11111222' 
TCOON,ioos:station:TCOON:006:1,2012-03-08T23:00:00Z,27.8217,-97.2040,0.0,3.2,103.0,6.7,'11111222,11111222,11111222' 
TCOON,ioos:station:TCOON:006:1,2012-03-09T00:00:00Z,27.8217,-97.2040,0.0,3.0,107.0,6.3,'11111222,11111222,11111222' 
TCOON,ioos:station:TCOON:006:1,2012-03-09T01:00:00Z,27.8217,-97.2040,0.0,2.0,101.0,3.8,'11111222,11111222,11111222' 
TCOON,ioos:station:TCOON:006:1,2012-03-09T02:00:00Z,27.8217,-97.2040,0.0,2.3,87.0,3.8,'11111222,11111222,11111222' 
TCOON,ioos:station:TCOON:006:1,2012-03-09T03:00:00Z,27.8217,-97.2040,0.0,3.4,69.0,4.3,'11111222,11111222,11111222' 
TCOON,ioos:station:TCOON:006:1,2012-03-09T04:00:00Z,27.8217,-97.2040,0.0,1.6,63.0,2.3,'11111222,11111222,11111222' 
TCOON,ioos:station:TCOON:006:1,2012-03-09T05:00:00Z,27.8217,-97.2040,0.0,1.6,40.0,2.5,'11111222,11111222,11111222' 
TCOON,ioos:station:TCOON:006:1,2012-03-09T06:00:00Z,27.8217,-97.2040,0.0,2.7,354.0,7.8,'11111222,11111222,11111222' 
TCOON,ioos:station:TCOON:006:1,2012-03-09T07:00:00Z,27.8217,-97.2040,0.0,3.0,4.0,5.1,'11111222,11111222,11111222' 
TCOON,ioos:station:TCOON:006:1,2012-03-09T08:00:00Z,27.8217,-97.2040,0.0,2.3,360.0,6.5,'11111222,11144222,11111222' 
TCOON,ioos:station:TCOON:006:1,2012-03-09T09:00:00Z,27.8217,-97.2040,0.0,2.5,349.0,5.2,'11111222,11111222,11111222' 
TCOON,ioos:station:TCOON:006:1,2012-03-09T10:00:00Z,27.8217,-97.2040,0.0,3.4,346.0,5.3,'11111222,11111222,11111222' 
TCOON,ioos:station:TCOON:006:1,2012-03-09T11:00:00Z,27.8217,-97.2040,0.0,3.0,342.0,5.0,'11111222,11111222,11111222' 
TCOON,ioos:station:TCOON:006:1,2012-03-09T12:00:00Z,27.8217,-97.2040,0.0,3.5,340.0,6.3,'11111222,11111222,11111222' 
TCOON,ioos:station:TCOON:006:1,2012-03-09T13:00:00Z,27.8217,-97.2040,0.0,3.5,327.0,7.3,'11111222,11111222,11111222' 